GFSNE_prec_snow_195.txt.gz
Snowfall_Accumulation
0.0 0.0 0.0 0.0 0.0 0.0 0.0 0.0 0.0 0.0 0.0 0.0 0.0 0.0 0.0 0.0 0.0 0.0 0.0 0.0 0.0 0.0 0.0 0.0 0.0 0.0 0.0 0.0 0.0 0.0 0.0 0.0 0.0 0.0 0.0 0.0 0.0 0.0
0.0 0.0 0.0 0.0 0.0 0.0 0.0 0.0 0.0 0.0 0.0 0.0 0.0 0.0 0.0 0.0 0.0 0.0 0.0 0.0 0.0 0.0 0.0 0.0 0.0 0.0 0.0 0.0 0.0 0.0 0.0 0.0 0.0 0.0 0.0 0.0 0.0 0.0
0.0 0.0 0.0 0.0 0.0 0.0 0.0 0.0 0.0 0.0 0.0 0.2 0.1 0.0 0.0 0.0 0.0 0.0 0.0 0.0 0.0 0.0 0.0 0.0 0.0 0.0 0.0 0.0 0.0 0.0 0.0 0.0 0.0 0.0 0.0 0.0 0.0 0.0
0.0 0.0 0.0 0.0 0.0 0.0 0.0 0.0 0.0 0.1 0.1 0.1 0.0 0.6 0.6 0.4 0.7 0.1 0.0 0.0 0.0 0.0 0.0 0.0 0.0 0.0 0.0 0.0 0.0 0.0 0.0 0.0 0.0 0.0 0.0 0.0 0.0 0.0
0.0 0.0 0.0 0.0 0.0 0.0 0.1 0.0 0.4 0.5 0.3 0.1 0.5 1.1 2.0 1.6 3.3 2.9 2.1 0.0 0.0 0.0 0.0 0.0 0.0 0.0 0.0 0.0 0.1 0.0 0.1 0.1 0.0 0.0 0.0 0.0 0.0 0.0
0.0 0.2 0.1 0.6 0.7 0.0 1.2 1.2 0.8 1.3 0.8 1.1 0.3 1.5 1.4 0.8 0.6 0.7 0.5 0.3 0.0 0.0 0.0 0.0 0.0 0.0 0.0 0.0 0.0 0.0 0.0 0.0 0.0 0.0 0.0 0.0 0.0 0.0
0.0 0.6 0.4 0.1 1.4 3.4 2.5 1.5 1.6 1.3 1.6 1.5 1.1 0.4 0.4 0.3 0.3 0.2 0.1 0.0 0.2 0.0 0.0 0.0 0.0 0.0 0.0 0.0 0.0 0.0 0.0 0.0 0.1 0.1 0.3 0.4 0.0 0.0
0.0 1.6 1.5 2.8 1.2 0.0 0.0 0.0 0.1 1.3 1.3 1.0 0.5 0.1 0.0 0.0 0.0 0.1 0.3 0.5 0.9 0.0 0.2 0.0 0.0 0.3 0.0 0.0 0.0 0.0 0.0 0.0 0.1 0.0 0.2 0.5 0.4 0.2
2.1 2.1 0.7 1.1 0.8 0.7 0.2 0.2 0.8 0.4 0.3 0.2 0.0 0.0 0.0 0.0 0.6 0.9 1.3 2.0 0.3 0.0 0.2 0.4 0.0 0.0 0.0 0.0 0.0 0.0 0.0 0.0 0.0 0.2 0.3 0.3 0.3 0.3
1.5 0.8 0.4 0.0 0.0 0.2 0.2 0.7 0.1 0.0 0.0 0.0 0.0 0.1 0.2 0.2 0.6 1.5 2.1 1.6 0.3 0.0 0.1 0.6 0.0 0.0 0.0 0.0 0.0 0.0 0.0 0.0 0.0 0.2 0.2 0.3 0.3 0.4
0.4 0.0 0.0 0.0 0.0 0.1 0.4 0.2 0.0 0.0 0.0 0.0 0.1 0.1 0.0 0.0 0.0 0.4 1.2 1.5 1.0 0.0 0.0 0.3 0.0 0.0 0.0 0.0 0.0 0.0 0.0 0.0 0.0 0.0 0.1 0.1 0.2 0.3
0.1 0.0 0.0 0.0 0.1 0.4 0.5 0.2 0.6 0.1 0.3 0.2 0.1 0.0 0.0 0.0 0.0 0.0 0.3 3.5 2.4 2.0 0.0 1.9 0.4 0.9 3.3 0.0 0.0 0.0 0.0 0.0 0.0 0.0 0.1 0.1 0.2 0.2
0.1 0.0 0.0 0.0 0.3 0.5 0.5 0.4 0.8 0.5 0.3 0.2 0.0 0.0 0.0 0.0 0.0 0.0 0.0 1.7 5.9 4.8 0.0 5.3 7.3 1.8 6.2 1.8 0.0 0.0 0.0 0.0 0.0 0.0 0.0 0.0 0.3 0.5
0.1 0.0 0.0 0.3 0.4 0.4 0.2 0.5 0.6 0.6 0.5 0.2 0.1 0.0 0.0 0.0 0.0 0.1 0.2 0.1 0.3 2.1 0.3 0.6 12.8 4.9 8.4 6.5 1.3 0.0 0.3 0.3 1.0 1.3 1.3 0.2 0.1 0.3
0.1 0.0 0.3 0.5 0.5 0.2 0.1 0.2 0.3 0.0 0.1 0.6 0.5 0.2 0.0 0.0 0.0 0.3 0.1 1.5 1.3 0.0 0.0 0.2 4.1 5.4 9.1 10.2 4.9 1.0 0.9 0.3 0.9 1.1 1.6 2.4 2.3 0.8
0.0 0.0 0.4 0.5 0.3 0.1 0.0 0.0 0.0 0.0 0.1 0.9 1.2 0.2 0.1 0.6 2.0 1.8 2.6 2.1 4.0 2.3 1.6 2.6 3.3 5.8 10.2 4.7 5.2 3.9 0.9 2.3 1.0 1.4 2.6 1.8 1.8 2.5
1.0 0.5 0.2 0.0 0.0 0.0 0.0 0.0 0.1 0.1 1.1 0.4 1.8 2.2 1.9 1.9 1.9 1.7 3.4 3.8 6.3 4.3 5.1 3.0 3.0 3.8 3.8 4.8 7.3 1.6 1.6 1.6 1.1 2.6 3.1 2.3 1.3 3.2
1.0 0.9 1.1 0.2 0.3 0.3 0.3 0.4 0.6 0.8 0.9 3.3 3.9 3.6 4.6 4.4 3.6 5.2 5.6 6.8 7.2 3.6 5.5 6.1 6.7 9.7 8.9 7.6 2.1 5.0 4.0 2.0 2.8 1.6 2.5 5.4 3.5 1.1
0.9 0.9 0.7 0.8 1.0 0.8 1.3 1.7 2.4 1.2 2.0 4.6 6.4 6.3 7.3 6.3 7.4 6.5 4.7 5.8 6.0 3.9 5.3 6.5 9.0 13.0 14.9 6.7 2.5 2.5 6.6 6.7 4.1 3.7 3.2 4.5 4.8 2.6
0.2 0.2 0.4 0.3 1.4 2.4 2.0 3.4 3.2 3.6 4.6 5.1 5.7 5.7 7.6 9.3 8.2 6.3 5.0 6.8 6.8 4.7 4.4 5.8 6.3 8.8 16.2 10.9 8.3 1.8 3.5 7.4 9.3 6.4 3.9 2.6 3.7 0.2
0.3 0.7 0.4 1.2 2.1 3.1 3.9 5.1 5.3 6.0 5.9 7.1 6.1 5.6 5.6 9.6 8.3 4.8 6.0 4.3 6.4 6.0 6.5 3.0 1.9 4.6 8.6 14.1 14.4 5.5 4.8 4.4 4.6 11.3 8.4 8.0 3.7 2.8
0.7 0.8 1.1 2.2 2.8 4.5 5.0 5.9 6.2 5.1 5.3 4.6 4.1 4.6 5.2 7.8 8.9 6.9 6.0 7.8 4.8 3.4 3.9 3.1 4.9 6.4 8.7 12.2 8.1 3.6 3.2 3.1 4.7 2.2 3.1 10.0 15.8 13.2
2.1 2.7 1.8 3.9 4.3 5.6 6.1 6.5 5.4 4.1 3.6 4.7 4.7 4.6 5.7 8.2 5.0 5.4 6.3 6.1 5.8 6.9 4.9 5.5 5.0 5.1 6.5 6.6 7.0 6.0 4.2 3.7 3.1 3.5 3.9 3.0 2.9 2.1

GFSNE_prec_snow_198.txt.gz
Snowfall_Accumulation
0.0 0.0 0.0 0.0 0.0 0.0 0.0 0.0 0.0 0.0 0.0 0.0 0.0 0.0 0.0 0.0 0.0 0.0 0.0 0.0 0.0 0.0 0.0 0.0 0.0 0.0 0.0 0.0 0.0 0.0 0.0 0.0 0.0 0.0 0.0 0.0 0.0 0.0
0.0 0.0 0.0 0.0 0.0 0.0 0.0 0.0 0.0 0.0 0.0 0.0 0.0 0.0 0.0 0.0 0.0 0.0 0.0 0.0 0.0 0.0 0.0 0.0 0.0 0.0 0.0 0.0 0.0 0.0 0.0 0.0 0.0 0.0 0.0 0.0 0.0 0.0
0.0 0.0 0.0 0.0 0.0 0.0 0.0 0.0 0.0 0.0 0.0 0.2 0.1 0.0 0.0 0.0 0.0 0.0 0.0 0.0 0.0 0.0 0.0 0.0 0.0 0.0 0.0 0.0 0.0 0.0 0.0 0.0 0.0 0.0 0.0 0.0 0.0 0.0
0.0 0.0 0.0 0.0 0.0 0.0 0.0 0.0 0.0 0.1 0.1 0.1 0.0 0.6 0.6 0.4 0.7 0.1 0.0 0.0 0.0 0.0 0.0 0.0 0.0 0.0 0.0 0.0 0.0 0.0 0.0 0.0 0.0 0.0 0.0 0.0 0.0 0.0
0.0 0.0 0.0 0.0 0.0 0.0 0.1 0.0 0.4 0.5 0.3 0.1 0.5 1.1 2.0 1.6 3.3 2.9 2.1 0.0 0.0 0.0 0.0 0.0 0.0 0.0 0.0 0.0 0.1 0.0 0.1 0.1 0.0 0.0 0.0 0.0 0.0 0.0
0.0 0.2 0.1 0.6 0.7 0.0 1.2 1.2 0.8 1.3 0.8 1.1 0.3 1.5 1.4 0.8 0.6 0.7 0.5 0.3 0.0 0.0 0.0 0.0 0.0 0.0 0.0 0.0 0.0 0.0 0.0 0.0 0.0 0.0 0.0 0.0 0.0 0.0
0.0 0.6 0.4 0.1 1.4 3.4 2.5 1.5 1.6 1.3 1.6 1.5 1.1 0.4 0.4 0.3 0.3 0.2 0.1 0.0 0.2 0.0 0.0 0.0 0.0 0.0 0.0 0.0 0.0 0.0 0.0 0.0 0.1 0.1 0.3 0.4 0.0 0.0
0.0 1.6 1.5 2.8 1.2 0.0 0.0 0.0 0.1 1.3 1.3 1.0 0.5 0.1 0.0 0.0 0.0 0.1 0.3 0.5 0.9 0.0 0.2 0.0 0.0 0.3 0.0 0.0 0.0 0.0 0.0 0.0 0.1 0.0 0.2 0.5 0.4 0.2
2.1 2.1 0.7 1.1 0.8 0.7 0.2 0.2 0.8 0.4 0.3 0.2 0.0 0.0 0.0 0.0 0.6 0.9 1.3 2.0 0.3 0.0 0.2 0.4 0.0 0.0 0.0 0.0 0.0 0.0 0.0 0.0 0.0 0.2 0.3 0.3 0.3 0.3
1.5 0.8 0.4 0.0 0.0 0.2 0.2 0.7 0.1 0.0 0.0 0.0 0.0 0.1 0.2 0.2 0.6 1.5 2.1 1.6 0.3 0.0 0.1 0.6 0.0 0.0 0.0 0.0 0.0 0.0 0.0 0.0 0.0 0.2 0.2 0.3 0.3 0.4
0.4 0.0 0.0 0.0 0.0 0.1 0.4 0.2 0.0 0.0 0.0 0.0 0.1 0.1 0.0 0.0 0.0 0.4 1.2 1.5 1.0 0.0 0.0 0.3 0.0 0.0 0.0 0.0 0.0 0.0 0.0 0.0 0.0 0.0 0.1 0.1 0.2 0.3
0.1 0.0 0.0 0.0 0.1 0.4 0.5 0.2 0.6 0.1 0.3 0.2 0.1 0.0 0.0 0.0 0.0 0.0 0.3 3.5 2.4 2.0 0.0 1.9 0.4 0.9 3.3 0.0 0.0 0.0 0.0 0.0 0.0 0.0 0.1 0.1 0.2 0.2
0.1 0.1 0.0 0.0 0.3 0.5 0.5 0.4 0.8 0.5 0.3 0.2 0.0 0.0 0.0 0.0 0.0 0.0 0.0 1.7 5.9 4.8 0.0 5.3 7.3 1.8 6.3 1.8 0.0 0.0 0.0 0.0 0.0 0.0 0.0 0.0 0.3 0.5
0.2 0.0 0.0 0.3 0.4 0.4 0.2 0.5 0.6 0.6 0.5 0.2 0.1 0.0 0.0 0.0 0.0 0.1 0.2 0.1 0.3 2.1 0.3 0.6 12.9 4.9 8.5 6.6 1.3 0.0 0.3 0.3 1.0 1.3 1.3 0.2 0.1 0.3
0.1 0.0 0.3 0.5 0.5 0.2 0.1 0.2 0.3 0.0 0.1 0.6 0.5 0.2 0.0 0.0 0.0 0.3 0.1 1.5 1.3 0.0 0.0 0.2 4.1 5.4 9.2 10.3 4.9 1.0 0.9 0.3 0.9 1.1 1.6 2.4 2.3 0.8
0.0 0.0 0.4 0.5 0.3 0.1 0.0 0.0 0.0 0.0 0.1 0.9 1.2 0.2 0.1 0.6 2.0 1.8 2.6 2.1 4.0 2.3 1.6 2.6 3.3 5.8 10.2 4.8 5.2 3.9 0.9 2.3 1.0 1.4 2.6 1.8 1.8 2.5
1.0 0.5 0.2 0.0 0.0 0.0 0.0 0.0 0.1 0.1 1.1 0.4 1.8 2.2 1.9 1.9 1.9 1.7 3.4 3.8 6.4 4.3 5.1 3.0 3.0 3.8 3.8 4.8 7.3 1.6 1.6 1.6 1.1 2.6 3.1 2.3 1.3 3.2
1.0 0.9 1.1 0.2 0.3 0.3 0.3 0.4 0.6 0.8 0.9 3.3 3.9 3.6 4.6 4.4 3.6 5.2 5.6 6.8 7.2 3.6 5.5 6.1 6.7 9.7 8.9 7.6 2.1 5.0 4.0 2.0 2.8 1.6 2.5 5.4 3.5 1.1
0.9 0.9 0.7 0.8 1.0 0.8 1.3 1.7 2.4 1.2 2.0 4.6 6.4 6.3 7.3 6.3 7.4 6.5 4.7 5.8 6.0 3.9 5.3 6.5 9.0 13.1 15.0 6.7 2.5 2.5 6.6 6.7 4.1 3.7 3.2 4.5 4.9 2.6
0.2 0.2 0.4 0.3 1.4 2.4 2.0 3.4 3.2 3.6 4.6 5.1 5.7 5.7 7.6 9.3 8.2 6.3 5.0 6.8 6.8 4.7 4.5 5.8 6.3 8.8 16.3 11.0 8.4 1.8 3.5 7.4 9.3 6.4 3.9 2.6 3.7 0.2
0.3 0.7 0.4 1.2 2.1 3.1 3.9 5.1 5.3 6.0 5.9 7.1 6.1 5.6 5.6 9.6 8.3 4.8 6.0 4.3 6.4 6.1 6.6 3.0 1.9 4.6 8.6 14.2 14.5 5.5 4.8 4.4 4.6 11.3 8.4 8.1 3.8 2.9
0.7 0.8 1.1 2.2 2.8 4.5 5.0 5.9 6.2 5.1 5.3 4.6 4.1 4.6 5.2 7.8 9.0 7.0 6.0 7.8 4.8 3.5 3.9 3.1 4.9 6.4 8.7 12.2 8.2 3.6 3.2 3.1 4.7 2.2 3.1 10.0 15.9 13.4
2.1 2.7 1.8 3.9 4.3 5.6 6.1 6.5 5.4 4.1 3.6 4.7 4.7 4.6 5.7 8.2 5.0 5.5 6.3 6.2 5.9 7.0 4.9 5.5 5.0 5.1 6.5 6.6 7.0 6.0 4.2 3.7 3.1 3.5 3.9 3.0 2.9 2.1

GFSNE_prec_snow_201.txt.gz
Snowfall_Accumulation
0.0 0.0 0.0 0.0 0.0 0.0 0.0 0.0 0.0 0.0 0.0 0.0 0.0 0.0 0.0 0.0 0.0 0.0 0.0 0.0 0.0 0.0 0.0 0.0 0.0 0.0 0.0 0.0 0.0 0.0 0.0 0.0 0.0 0.0 0.0 0.0 0.0 0.0
0.0 0.0 0.0 0.0 0.0 0.0 0.0 0.0 0.0 0.0 0.0 0.0 0.0 0.0 0.0 0.0 0.0 0.0 0.0 0.0 0.0 0.0 0.0 0.0 0.0 0.0 0.0 0.0 0.0 0.0 0.0 0.0 0.0 0.0 0.0 0.0 0.0 0.0
0.0 0.0 0.0 0.0 0.0 0.0 0.0 0.0 0.0 0.0 0.0 0.2 0.1 0.0 0.0 0.0 0.0 0.0 0.0 0.0 0.0 0.0 0.0 0.0 0.0 0.0 0.0 0.0 0.0 0.0 0.0 0.0 0.0 0.0 0.0 0.0 0.0 0.0
0.0 0.0 0.0 0.0 0.0 0.0 0.0 0.0 0.0 0.1 0.1 0.1 0.0 0.6 0.6 0.4 0.7 0.1 0.0 0.0 0.0 0.0 0.0 0.0 0.0 0.0 0.0 0.0 0.0 0.0 0.0 0.0 0.0 0.0 0.0 0.0 0.0 0.0
0.0 0.0 0.0 0.0 0.0 0.0 0.1 0.0 0.4 0.5 0.3 0.1 0.5 1.1 2.0 1.6 3.3 2.9 2.1 0.0 0.0 0.0 0.0 0.0 0.0 0.0 0.0 0.0 0.1 0.0 0.1 0.1 0.0 0.0 0.0 0.0 0.0 0.0
0.0 0.2 0.1 0.6 0.7 0.0 1.2 1.2 0.8 1.3 0.8 1.1 0.3 1.5 1.4 0.8 0.6 0.7 0.5 0.3 0.0 0.0 0.0 0.0 0.0 0.0 0.0 0.0 0.0 0.0 0.0 0.0 0.0 0.0 0.0 0.0 0.0 0.0
0.0 0.6 0.4 0.1 1.4 3.4 2.5 1.5 1.6 1.3 1.6 1.5 1.1 0.4 0.4 0.3 0.3 0.2 0.1 0.0 0.2 0.0 0.0 0.0 0.0 0.0 0.0 0.0 0.0 0.0 0.0 0.0 0.1 0.1 0.3 0.4 0.0 0.0
0.0 1.6 1.5 2.8 1.2 0.0 0.0 0.0 0.1 1.3 1.3 1.0 0.5 0.1 0.0 0.0 0.0 0.1 0.3 0.5 0.9 0.0 0.2 0.0 0.0 0.3 0.0 0.0 0.0 0.0 0.0 0.0 0.1 0.0 0.2 0.5 0.4 0.2
2.1 2.1 0.7 1.1 0.8 0.7 0.2 0.2 0.8 0.4 0.3 0.2 0.0 0.0 0.0 0.0 0.6 0.9 1.3 2.0 0.3 0.0 0.2 0.4 0.0 0.0 0.0 0.0 0.0 0.0 0.0 0.0 0.0 0.2 0.3 0.3 0.3 0.3
1.5 0.8 0.4 0.0 0.0 0.2 0.2 0.7 0.1 0.0 0.0 0.0 0.0 0.1 0.2 0.2 0.6 1.5 2.1 1.6 0.3 0.0 0.1 0.6 0.0 0.0 0.0 0.0 0.0 0.0 0.0 0.0 0.0 0.2 0.2 0.3 0.3 0.4
0.4 0.0 0.0 0.0 0.0 0.1 0.4 0.2 0.0 0.0 0.0 0.0 0.1 0.1 0.0 0.0 0.0 0.4 1.2 1.5 1.0 0.0 0.0 0.3 0.0 0.0 0.0 0.0 0.0 0.0 0.0 0.0 0.0 0.0 0.1 0.1 0.2 0.3
0.1 0.0 0.0 0.0 0.1 0.4 0.5 0.2 0.6 0.1 0.3 0.2 0.1 0.0 0.0 0.0 0.0 0.0 0.3 3.5 2.4 2.0 0.0 1.9 0.4 0.9 3.3 0.0 0.0 0.0 0.0 0.0 0.0 0.0 0.1 0.1 0.2 0.2
0.1 0.1 0.0 0.0 0.3 0.5 0.5 0.4 0.8 0.5 0.3 0.2 0.0 0.0 0.0 0.0 0.0 0.0 0.0 1.7 5.9 4.8 0.0 5.3 7.3 1.8 6.3 1.8 0.0 0.0 0.0 0.0 0.0 0.0 0.0 0.0 0.3 0.5
0.2 0.0 0.0 0.3 0.4 0.4 0.2 0.5 0.6 0.6 0.5 0.2 0.1 0.0 0.0 0.0 0.0 0.1 0.2 0.1 0.3 2.1 0.3 0.6 12.9 4.9 8.5 6.7 1.3 0.0 0.3 0.3 1.0 1.3 1.3 0.2 0.1 0.3
0.1 0.0 0.3 0.5 0.5 0.2 0.1 0.2 0.3 0.0 0.1 0.6 0.5 0.2 0.0 0.0 0.0 0.3 0.1 1.5 1.3 0.0 0.0 0.2 4.1 5.4 9.2 10.4 5.0 1.0 0.9 0.3 0.9 1.1 1.6 2.4 2.3 0.8
0.0 0.0 0.4 0.5 0.3 0.1 0.0 0.0 0.0 0.0 0.1 0.9 1.2 0.2 0.1 0.6 2.0 1.8 2.6 2.1 4.0 2.3 1.6 2.6 3.3 5.8 10.3 4.8 5.3 3.9 0.9 2.3 1.0 1.4 2.6 1.8 1.8 2.5
1.0 0.5 0.2 0.0 0.0 0.0 0.0 0.0 0.1 0.1 1.1 0.4 1.8 2.2 1.9 1.9 1.9 1.7 3.4 3.8 6.4 4.3 5.1 3.0 3.0 3.8 3.8 4.8 7.4 1.6 1.6 1.6 1.1 2.6 3.1 2.3 1.3 3.2
1.0 0.9 1.1 0.2 0.3 0.3 0.3 0.4 0.6 0.8 0.9 3.3 3.9 3.6 4.6 4.4 3.6 5.2 5.6 6.8 7.2 3.6 5.5 6.1 6.7 9.7 8.9 7.6 2.1 5.0 4.0 2.0 2.8 1.6 2.5 5.4 3.5 1.1
0.9 0.9 0.7 0.8 1.0 0.8 1.3 1.7 2.4 1.2 2.0 4.6 6.4 6.3 7.3 6.3 7.4 6.5 4.7 5.8 6.0 3.9 5.3 6.5 9.0 13.1 15.1 6.8 2.5 2.5 6.6 6.7 4.1 3.7 3.2 4.5 4.9 2.6
0.2 0.2 0.4 0.3 1.4 2.4 2.0 3.4 3.2 3.6 4.6 5.1 5.7 5.7 7.6 9.3 8.2 6.3 5.0 6.8 6.9 4.7 4.5 5.8 6.3 8.8 16.4 11.1 8.6 1.8 3.5 7.4 9.3 6.4 3.9 2.6 3.7 0.2
0.3 0.7 0.4 1.2 2.1 3.1 3.9 5.1 5.3 6.0 5.9 7.1 6.1 5.6 5.6 9.6 8.3 4.8 6.0 4.3 6.5 6.1 6.6 3.0 1.9 4.6 8.6 14.2 14.6 5.5 4.8 4.4 4.6 11.3 8.4 8.2 3.9 2.9
0.7 0.8 1.1 2.2 2.8 4.5 5.0 5.9 6.2 5.1 5.3 4.6 4.1 4.6 5.2 7.8 9.0 7.0 6.1 7.9 4.9 3.5 4.0 3.1 4.9 6.4 8.8 12.4 8.2 3.6 3.2 3.1 4.7 2.2 3.1 10.0 16.1 13.7
2.1 2.7 1.8 3.9 4.3 5.6 6.1 6.5 5.4 4.1 3.6 4.7 4.7 4.6 5.7 8.2 5.0 5.5 6.4 6.2 5.9 7.0 5.0 5.5 5.0 5.1 6.5 6.6 7.0 6.0 4.2 3.7 3.1 3.5 3.9 3.0 2.9 2.1

GFSNE_prec_snow_204.txt.gz
Snowfall_Accumulation
0.0 0.0 0.0 0.0 0.0 0.0 0.0 0.0 0.0 0.0 0.0 0.0 0.0 0.0 0.0 0.0 0.0 0.0 0.0 0.0 0.0 0.0 0.0 0.0 0.0 0.0 0.0 0.0 0.0 0.0 0.0 0.0 0.0 0.0 0.0 0.0 0.0 0.0
0.0 0.0 0.0 0.0 0.0 0.0 0.0 0.0 0.0 0.0 0.0 0.0 0.0 0.0 0.0 0.0 0.0 0.0 0.0 0.0 0.0 0.0 0.0 0.0 0.0 0.0 0.0 0.0 0.0 0.0 0.0 0.0 0.0 0.0 0.0 0.0 0.0 0.0
0.0 0.0 0.0 0.0 0.0 0.0 0.0 0.0 0.0 0.0 0.0 0.2 0.1 0.0 0.0 0.0 0.0 0.0 0.0 0.0 0.0 0.0 0.0 0.0 0.0 0.0 0.0 0.0 0.0 0.0 0.0 0.0 0.0 0.0 0.0 0.0 0.0 0.0
0.0 0.0 0.0 0.0 0.0 0.0 0.0 0.0 0.0 0.1 0.1 0.1 0.0 0.6 0.6 0.4 0.7 0.1 0.0 0.0 0.0 0.0 0.0 0.0 0.0 0.0 0.0 0.0 0.0 0.0 0.0 0.0 0.0 0.0 0.0 0.0 0.0 0.0
0.0 0.0 0.0 0.0 0.0 0.0 0.1 0.0 0.4 0.5 0.3 0.1 0.5 1.1 2.0 1.6 3.3 2.9 2.1 0.0 0.0 0.0 0.0 0.0 0.0 0.0 0.0 0.0 0.1 0.0 0.1 0.1 0.0 0.0 0.0 0.0 0.0 0.0
0.0 0.2 0.1 0.6 0.7 0.0 1.2 1.2 0.8 1.3 0.8 1.1 0.3 1.5 1.4 0.8 0.6 0.7 0.5 0.3 0.0 0.0 0.0 0.0 0.0 0.0 0.0 0.0 0.0 0.0 0.0 0.0 0.0 0.0 0.0 0.0 0.0 0.0
0.0 0.6 0.4 0.1 1.4 3.4 2.5 1.5 1.6 1.3 1.6 1.5 1.1 0.4 0.4 0.3 0.3 0.2 0.1 0.0 0.2 0.0 0.0 0.0 0.0 0.0 0.0 0.0 0.0 0.0 0.0 0.0 0.1 0.1 0.3 0.4 0.0 0.0
0.0 1.6 1.5 2.8 1.2 0.0 0.0 0.0 0.1 1.3 1.3 1.0 0.5 0.1 0.0 0.0 0.0 0.1 0.3 0.5 0.9 0.0 0.3 0.0 0.0 0.3 0.0 0.0 0.0 0.0 0.0 0.0 0.1 0.0 0.2 0.5 0.4 0.2
2.1 2.1 0.7 1.1 0.8 0.7 0.2 0.2 0.8 0.4 0.3 0.2 0.0 0.0 0.0 0.0 0.6 0.9 1.3 2.0 0.3 0.0 0.2 0.4 0.0 0.0 0.0 0.0 0.0 0.0 0.0 0.0 0.0 0.2 0.3 0.3 0.3 0.3
1.5 0.8 0.4 0.0 0.0 0.2 0.2 0.7 0.1 0.0 0.0 0.0 0.0 0.1 0.2 0.2 0.6 1.5 2.1 1.6 0.3 0.0 0.1 0.6 0.0 0.0 0.0 0.0 0.0 0.0 0.0 0.0 0.0 0.2 0.2 0.3 0.3 0.4
0.4 0.0 0.0 0.0 0.0 0.1 0.4 0.2 0.0 0.0 0.0 0.0 0.1 0.1 0.0 0.0 0.0 0.4 1.2 1.5 1.0 0.0 0.0 0.3 0.0 0.0 0.0 0.0 0.0 0.0 0.0 0.0 0.0 0.0 0.1 0.1 0.2 0.3
0.1 0.0 0.0 0.0 0.1 0.4 0.5 0.2 0.6 0.1 0.3 0.2 0.1 0.0 0.0 0.0 0.0 0.0 0.3 3.5 2.4 2.0 0.0 1.9 0.4 0.9 3.3 0.0 0.0 0.0 0.0 0.0 0.0 0.0 0.1 0.1 0.2 0.2
0.1 0.1 0.0 0.0 0.3 0.5 0.5 0.4 0.8 0.5 0.3 0.2 0.0 0.0 0.0 0.0 0.0 0.0 0.0 1.7 5.9 4.8 0.0 5.3 7.3 1.8 6.3 1.8 0.0 0.0 0.0 0.0 0.0 0.0 0.0 0.0 0.3 0.5
0.2 0.0 0.0 0.3 0.4 0.4 0.2 0.5 0.6 0.6 0.5 0.2 0.1 0.0 0.0 0.0 0.0 0.1 0.2 0.1 0.3 2.1 0.3 0.6 12.9 4.9 8.5 6.7 1.3 0.0 0.3 0.3 1.0 1.3 1.3 0.2 0.1 0.3
0.1 0.0 0.3 0.5 0.5 0.2 0.1 0.2 0.3 0.0 0.1 0.6 0.5 0.2 0.0 0.0 0.0 0.3 0.1 1.5 1.3 0.0 0.0 0.2 4.1 5.4 9.2 10.4 5.0 1.0 0.9 0.3 0.9 1.1 1.6 2.4 2.3 0.8
0.0 0.0 0.4 0.5 0.3 0.1 0.0 0.0 0.0 0.0 0.1 0.9 1.2 0.2 0.1 0.6 2.0 1.8 2.6 2.1 4.0 2.3 1.6 2.6 3.3 5.8 10.3 4.8 5.3 3.9 0.9 2.3 1.0 1.4 2.6 1.8 1.8 2.5
1.0 0.5 0.2 0.0 0.0 0.0 0.0 0.0 0.1 0.1 1.1 0.4 1.8 2.2 1.9 1.9 1.9 1.7 3.4 3.8 6.4 4.3 5.1 3.0 3.0 3.8 3.8 4.8 7.5 1.6 1.6 1.6 1.1 2.6 3.1 2.3 1.3 3.2
1.0 0.9 1.1 0.2 0.3 0.3 0.3 0.4 0.6 0.8 0.9 3.3 3.9 3.6 4.6 4.4 3.6 5.2 5.6 6.8 7.2 3.6 5.5 6.1 6.7 9.7 8.9 7.6 2.1 5.0 4.0 2.0 2.8 1.6 2.5 5.4 3.5 1.1
0.9 0.9 0.7 0.8 1.0 0.8 1.3 1.7 2.4 1.2 2.0 4.6 6.4 6.3 7.3 6.3 7.4 6.5 4.7 5.8 6.0 3.9 5.3 6.5 9.0 13.1 15.3 6.8 2.5 2.5 6.6 6.7 4.1 3.7 3.2 4.5 4.9 2.6
0.2 0.2 0.4 0.3 1.4 2.4 2.0 3.4 3.2 3.6 4.6 5.1 5.7 5.7 7.6 9.3 8.2 6.3 5.0 6.8 6.9 4.7 4.5 5.8 6.3 8.9 16.6 11.3 8.7 1.8 3.5 7.4 9.3 6.4 3.9 2.6 3.7 0.2
0.3 0.7 0.4 1.2 2.1 3.1 3.9 5.1 5.3 6.0 5.9 7.1 6.1 5.6 5.6 9.6 8.3 4.8 6.0 4.3 6.5 6.1 6.7 3.0 1.9 4.6 8.6 14.2 14.7 5.5 4.8 4.4 4.6 11.3 8.4 8.3 4.0 3.0
0.7 0.8 1.1 2.2 2.8 4.5 5.0 5.9 6.2 5.1 5.3 4.6 4.1 4.6 5.2 7.8 9.0 7.0 6.1 7.9 4.9 3.6 4.1 3.1 4.9 6.4 8.8 12.4 8.3 3.6 3.2 3.1 4.7 2.2 3.1 10.0 16.2 13.8
2.1 2.7 1.8 3.9 4.3 5.6 6.1 6.5 5.4 4.1 3.6 4.7 4.7 4.6 5.7 8.2 5.0 5.5 6.4 6.3 6.0 7.1 5.0 5.6 5.0 5.1 6.5 6.6 7.0 6.0 4.2 3.7 3.1 3.5 3.9 3.0 2.9 2.1